When you browse on this site, cookies collect data to enhance your experience and personalize the content and advertising you see.
Visit our Privacy Policy to learn more. By continuing to use the site, you agree to this use of cookies and data.
  • In Austria
  • List of Countries
  • For 7 days
  • Water Temperature
  • Satellite Maps
  • Weather Map
  • News
  • Weather Widgets
  • user-avatar
    Login

    Hourly Weather Rosoman

    Today, 22 July, Monday

    Time Temperature Precipitation Wind Pressure Humidity
    00:00 +24°C° 0 mm 1 mps 740 mmHg 53%
    01:00 +23°C° 0 mm 1 mps 740 mmHg 57%
    02:00 +21°C° 0 mm 0 mps 740 mmHg 59%
    03:00 +20°C° 0 mm 0 mps 740 mmHg 60%
    04:00 +20°C° 0 mm 0 mps 740 mmHg 62%
    05:00 +24°C° 0 mm 1 mps 740 mmHg 57%
    06:00 +26°C° 0 mm 1 mps 740 mmHg 53%
    07:00 +28°C° 0 mm 1 mps 740 mmHg 48%
    08:00 +29°C° 0 mm 1 mps 740 mmHg 43%
    09:00 +31°C° 0 mm 2 mps 740 mmHg 38%
    10:00 +34°C° 0 mm 2 mps 740 mmHg 34%
    11:00 +35°C° 0 mm 2 mps 740 mmHg 30%
    12:00 +35°C° 0 mm 1 mps 740 mmHg 27%
    13:00 +37°C° 0 mm 1 mps 740 mmHg 23%
    14:00 +37°C° 0 mm 2 mps 739 mmHg 25%
    15:00 +37°C° 0 mm 2 mps 739 mmHg 26%
    16:00 +36°C° 0 mm 3 mps 739 mmHg 27%
    17:00 +34°C° 0 mm 3 mps 739 mmHg 32%
    18:00 +33°C° 0 mm 3 mps 739 mmHg 37%
    19:00 +30°C° 0 mm 3 mps 739 mmHg 42%
    20:00 +29°C° 0 mm 3 mps 739 mmHg 50%
    21:00 +27°C° 0 mm 2 mps 739 mmHg 57%
    22:00 +25°C° 0 mm 2 mps 739 mmHg 65%
    23:00 +25°C° 0.1 mm 2 mps 739 mmHg 68%

    Tomorrow, 23 July, Tuesday

    Time Temperature Precipitation Wind Pressure Humidity
    00:00 +24°C° 0.1 mm 2 mps 739 mmHg 71%
    01:00 +23°C° 0.1 mm 1 mps 739 mmHg 75%
    02:00 +22°C° 0 mm 1 mps 739 mmHg 76%
    03:00 +22°C° 0 mm 1 mps 738 mmHg 78%
    04:00 +21°C° 0 mm 1 mps 738 mmHg 80%
    05:00 +23°C° 0 mm 2 mps 738 mmHg 72%
    06:00 +25°C° 0 mm 3 mps 738 mmHg 65%
    07:00 +26°C° 0 mm 4 mps 738 mmHg 58%
    08:00 +28°C° 0 mm 4 mps 738 mmHg 51%
    09:00 +29°C° 0 mm 5 mps 738 mmHg 44%
    10:00 +32°C° 0 mm 5 mps 738 mmHg 37%
    11:00 +33°C° 0 mm 5 mps 738 mmHg 34%
    12:00 +34°C° 0 mm 6 mps 737 mmHg 32%
    13:00 +34°C° 0 mm 6 mps 737 mmHg 29%
    14:00 +34°C° 0 mm 6 mps 737 mmHg 30%
    15:00 +34°C° 0 mm 6 mps 736 mmHg 31%
    16:00 +34°C° 0 mm 6 mps 736 mmHg 31%
    17:00 +32°C° 0 mm 5 mps 736 mmHg 36%
    18:00 +29°C° 0 mm 5 mps 736 mmHg 40%
    19:00 +27°C° 0 mm 4 mps 736 mmHg 45%
    20:00 +26°C° 0 mm 3 mps 736 mmHg 50%
    21:00 +24°C° 0 mm 3 mps 737 mmHg 55%
    22:00 +22°C° 0 mm 3 mps 737 mmHg 59%
    23:00 +23°C° 0 mm 2 mps 737 mmHg 64%

    Day after tomorrow, 24 July, Wednesday

    Time Temperature Precipitation Wind Pressure Humidity
    00:00 +21°C° 0 mm 2 mps 737 mmHg 68%
    01:00 +21°C° 0 mm 1 mps 736 mmHg 72%
    02:00 +21°C° 0 mm 1 mps 736 mmHg 74%
    03:00 +21°C° 0 mm 1 mps 736 mmHg 76%
    04:00 +20°C° 0 mm 1 mps 736 mmHg 78%
    05:00 +21°C° 0 mm 2 mps 736 mmHg 72%
    06:00 +24°C° 0 mm 2 mps 736 mmHg 65%
    07:00 +26°C° 0 mm 3 mps 736 mmHg 58%
    08:00 +28°C° 0 mm 4 mps 736 mmHg 52%
    09:00 +29°C° 0 mm 5 mps 736 mmHg 46%
    10:00 +32°C° 0 mm 5 mps 736 mmHg 40%
    11:00 +32°C° 0 mm 6 mps 736 mmHg 38%
    12:00 +33°C° 0 mm 6 mps 736 mmHg 36%
    13:00 +33°C° 0 mm 6 mps 736 mmHg 34%
    14:00 +33°C° 0 mm 6 mps 736 mmHg 35%
    15:00 +33°C° 0 mm 6 mps 736 mmHg 35%
    16:00 +33°C° 0 mm 6 mps 736 mmHg 35%
    17:00 +30°C° 0 mm 5 mps 736 mmHg 40%
    18:00 +29°C° 0 mm 5 mps 736 mmHg 44%
    19:00 +27°C° 0 mm 4 mps 736 mmHg 49%
    20:00 +25°C° 0 mm 3 mps 737 mmHg 54%
    21:00 +24°C° 0 mm 2 mps 737 mmHg 60%
    22:00 +22°C° 0 mm 1 mps 738 mmHg 65%
    23:00 +22°C° 0 mm 1 mps 737 mmHg 68%

    25 July, Thursday

    Time Temperature Precipitation Wind Pressure Humidity
    00:00 +21°C° 0 mm 1 mps 737 mmHg 71%
    01:00 +21°C° 0 mm 1 mps 737 mmHg 74%
    02:00 +18°C° 0 mm 0 mps 737 mmHg 76%
    03:00 +18°C° 0 mm 0 mps 737 mmHg 78%
    04:00 +17°C° 0 mm 0 mps 738 mmHg 81%
    05:00 +21°C° 0 mm 1 mps 738 mmHg 74%
    06:00 +23°C° 0 mm 1 mps 738 mmHg 67%
    07:00 +25°C° 0 mm 1 mps 738 mmHg 60%
    08:00 +27°C° 0 mm 1 mps 738 mmHg 54%
    09:00 +28°C° 0 mm 2 mps 738 mmHg 47%
    10:00 +30°C° 0 mm 2 mps 738 mmHg 41%
    11:00 +31°C° 0 mm 2 mps 738 mmHg 37%
    12:00 +34°C° 0 mm 2 mps 738 mmHg 33%
    13:00 +35°C° 0 mm 2 mps 738 mmHg 30%
    14:00 +35°C° 0 mm 2 mps 737 mmHg 29%
    15:00 +35°C° 0 mm 3 mps 737 mmHg 29%
    16:00 +35°C° 0 mm 3 mps 737 mmHg 28%
    17:00 +33°C° 0 mm 3 mps 737 mmHg 34%
    18:00 +30°C° 0 mm 2 mps 737 mmHg 40%
    19:00 +28°C° 0 mm 2 mps 737 mmHg 46%
    20:00 +26°C° 0 mm 2 mps 737 mmHg 51%
    21:00 +25°C° 0 mm 1 mps 737 mmHg 56%
    22:00 +23°C° 0 mm 1 mps 738 mmHg 61%
    23:00 +23°C° 0 mm 1 mps 737 mmHg 64%

    26 July, Friday

    Time Temperature Precipitation Wind Pressure Humidity
    00:00 +20°C° 0 mm 0 mps 737 mmHg 67%
    01:00 +19°C° 0 mm 0 mps 737 mmHg 70%
    02:00 +19°C° 0 mm 0 mps 737 mmHg 72%
    03:00 +18°C° 0 mm 0 mps 737 mmHg 74%
    04:00 +18°C° 0 mm 0 mps 737 mmHg 77%
    05:00 +20°C° 0 mm 0 mps 737 mmHg 70%
    06:00 +24°C° 0 mm 1 mps 737 mmHg 63%
    07:00 +26°C° 0 mm 1 mps 737 mmHg 56%
    08:00 +28°C° 0 mm 1 mps 737 mmHg 50%
    09:00 +30°C° 0 mm 1 mps 736 mmHg 44%
    10:00 +32°C° 0 mm 1 mps 736 mmHg 38%
    11:00 +33°C° 0 mm 1 mps 736 mmHg 35%
    12:00 +34°C° 0 mm 1 mps 736 mmHg 31%
    13:00 +35°C° 0 mm 1 mps 735 mmHg 28%
    14:00 +35°C° 0 mm 1 mps 735 mmHg 28%
    15:00 +36°C° 0 mm 2 mps 735 mmHg 28%
    16:00 +36°C° 0 mm 2 mps 734 mmHg 28%
    17:00 +34°C° 0 mm 2 mps 734 mmHg 32%
    18:00 +31°C° 0 mm 2 mps 734 mmHg 37%
    19:00 +29°C° 0 mm 2 mps 734 mmHg 42%
    20:00 +28°C° 0 mm 2 mps 734 mmHg 47%
    21:00 +26°C° 0 mm 1 mps 735 mmHg 52%
    22:00 +25°C° 0 mm 1 mps 735 mmHg 56%
    23:00 +24°C° 0 mm 1 mps 735 mmHg 59%

    27 July, Saturday

    Time Temperature Precipitation Wind Pressure Humidity
    00:00 +21°C° 0 mm 0 mps 734 mmHg 61%
    01:00 +21°C° 0 mm 0 mps 734 mmHg 63%
    02:00 +20°C° 0 mm 0 mps 734 mmHg 65%
    03:00 +20°C° 0 mm 0 mps 734 mmHg 67%
    04:00 +19°C° 0 mm 0 mps 734 mmHg 69%
    05:00 +23°C° 0 mm 1 mps 734 mmHg 63%
    06:00 +25°C° 0 mm 1 mps 734 mmHg 57%
    07:00 +27°C° 0 mm 1 mps 734 mmHg 50%
    08:00 +29°C° 0 mm 1 mps 734 mmHg 45%
    09:00 +31°C° 0 mm 2 mps 734 mmHg 39%
    10:00 +34°C° 0 mm 2 mps 734 mmHg 34%
    11:00 +35°C° 0 mm 2 mps 734 mmHg 31%
    12:00 +36°C° 0 mm 2 mps 734 mmHg 29%
    13:00 +37°C° 0 mm 2 mps 733 mmHg 26%
    14:00 +37°C° 0 mm 3 mps 733 mmHg 25%
    15:00 +37°C° 0 mm 3 mps 733 mmHg 25%
    16:00 +37°C° 0 mm 4 mps 733 mmHg 24%
    17:00 +35°C° 0 mm 3 mps 733 mmHg 27%
    18:00 +33°C° 0 mm 3 mps 733 mmHg 29%
    19:00 +29°C° 0 mm 2 mps 733 mmHg 32%
    20:00 +28°C° 0 mm 2 mps 733 mmHg 36%
    21:00 +26°C° 0 mm 1 mps 734 mmHg 40%
    22:00 +24°C° 0 mm 1 mps 734 mmHg 45%
    23:00 +24°C° 0 mm 1 mps 734 mmHg 48%
    Show more